Norfolk, NE

2:22 AM CDT on October 19, 2017 (GMT -0500)
Stefan Memorial

Weather History for KOFK - January, 2013

Change the Weather History Date:

Wednesday, January 2, 2013

  Actual Average Record
Temperature  
Mean Temperature 18 °F 22 °F  
Max Temperature 33 °F 32 °F 67 °F (1939)
Min Temperature 2 °F 12 °F -16 °F (1942)
Degree Days  
Heating Degree Days 47 43  
Month to date heating degree days 101 86  
Since 1 July heating degree days 2713 2792  
Cooling Degree Days 0 0  
Month to date cooling degree days 0 0  
Year to date cooling degree days 0 0  
Moisture  
Dew Point 21 °F    
Average Humidity 78    
Maximum Humidity 86    
Minimum Humidity 69    
Precipitation  
Precipitation T in 0.02 in 0.25 in (1906)
Month to date precipitation T 0.04  
Year to date precipitation T 0.04  
Snow  
Snow T in 0.20 in - ()
Month to date snowfall T 0.4  
Since 1 July snowfall 7.5 11.3  
Snow Depth 3.00 in    
Sea Level Pressure  
Sea Level Pressure 30.13 in    
Wind  
Wind Speed 9 mph (WNW)    
Max Wind Speed 18 mph    
Max Gust Speed 23 mph    
Visibility 10 miles    
Events      
T = Trace of Precipitation, MM = Missing Value Source: NWS Daily Summary

Daily Weather History Graph

Daily Weather History Graph

Search for Another Location

Airport or City:

Trip Planner

Search our weather history database for the weather conditions in past years. The results will help you decide how hot, cold, wet, or windy it might be!

Date:

Astronomy

Jan. 02, 2013 Rise Set
Actual Time 7:57 AM CST 5:10 PM CST
Civil Twilight 7:26 AM CST 5:41 PM CST
Nautical Twilight 6:51 AM CST 6:16 PM CST
Astronomical Twilight 6:17 AM CST 6:50 PM CST
Moon 10:50 PM CST (1/2) 10:34 AM CST (1/2)
Length of Visible Light 10h 15m
Length of Day
9h 12m
Waning Gibbous, 75% of the Moon is Illuminated
Jan 2
Waning Gibbous
Jan 4
Last Quarter
Jan 11
New
Jan 18
First Quarter
Jan 26
Full

Hourly Weather History & Observations

Time (CST) Temp. Windchill Dew Point Humidity Pressure Visibility Wind Dir Wind Speed Gust Speed Precip Events Conditions
12:56 AM 8.1 °F -3.2 °F 5.0 °F 87% 30.10 in 10.0 mi SSW 6.9 mph - N/A   Clear
1:56 AM 3.9 °F - -0.0 °F 84% 30.09 in 9.0 mi Calm Calm - N/A   Clear
2:56 AM 9.0 °F - 5.0 °F 84% 30.09 in 7.0 mi Calm Calm - N/A   Clear
3:56 AM 8.1 °F - 5.0 °F 87% 30.09 in 7.0 mi Calm Calm - N/A   Clear
4:56 AM 16.0 °F 5.3 °F 10.9 °F 81% 30.07 in 10.0 mi West 8.1 mph - N/A   Overcast
5:56 AM 19.9 °F 9.3 °F 15.1 °F 81% 30.07 in 10.0 mi West 9.2 mph - N/A   Overcast
6:56 AM 23.0 °F 12.4 °F 18.0 °F 81% 30.09 in 10.0 mi West 10.4 mph - N/A   Overcast
7:21 AM 24.8 °F 15.3 °F 19.4 °F 80% 30.01 in 10.0 mi West 9.2 mph - N/A   Overcast
7:56 AM 26.1 °F 15.6 °F 21.9 °F 84% 30.09 in 10.0 mi West 11.5 mph - N/A   Overcast
8:46 AM 28.4 °F 19.7 °F 23.0 °F 80% 30.01 in 10.0 mi West 9.2 mph - N/A   Overcast
8:56 AM 28.0 °F 18.6 °F 24.1 °F 85% 30.08 in 10.0 mi West 10.4 mph - N/A   Overcast
9:56 AM 28.9 °F 19.8 °F 24.1 °F 82% 30.10 in 10.0 mi WNW 10.4 mph - N/A   Mostly Cloudy
10:56 AM 32.0 °F 23.6 °F 25.0 °F 75% 30.12 in 10.0 mi WNW 10.4 mph - 0.00 in   Overcast
11:09 AM 32.0 °F 23.6 °F 26.6 °F 80% 30.04 in 10.0 mi WNW 10.4 mph - N/A   Overcast
11:56 AM 33.1 °F 23.4 °F 26.1 °F 75% 30.11 in 10.0 mi NW 13.8 mph - N/A   Overcast
12:51 PM 33.8 °F 24.8 °F 26.6 °F 75% 30.02 in 10.0 mi WNW 12.7 mph - N/A   Overcast
12:56 PM 33.1 °F 23.4 °F 26.1 °F 75% 30.10 in 10.0 mi WNW 13.8 mph - N/A   Overcast
1:56 PM 33.1 °F 24.4 °F 24.1 °F 70% 30.10 in 10.0 mi NW 11.5 mph - N/A   Overcast
2:56 PM 33.1 °F 23.9 °F 24.1 °F 70% 30.12 in 10.0 mi WNW 12.7 mph - N/A   Overcast
3:56 PM 32.0 °F 24.8 °F 25.0 °F 75% 30.15 in 10.0 mi WNW 8.1 mph - N/A   Overcast
4:56 PM 32.0 °F 24.8 °F 25.0 °F 75% 30.16 in 10.0 mi NW 8.1 mph - N/A   Overcast
5:56 PM 32.0 °F 23.6 °F 24.1 °F 73% 30.17 in 10.0 mi WNW 10.4 mph - N/A   Overcast
6:34 PM 30.2 °F 21.9 °F 24.8 °F 80% 30.12 in 10.0 mi WNW 9.2 mph - N/A   Overcast
7:56 PM 30.0 °F 21.7 °F 25.0 °F 82% 30.19 in 10.0 mi NW 9.2 mph - 0.00 in   Overcast
8:21 PM 30.2 °F 23.4 °F 24.8 °F 80% 30.14 in 10.0 mi WNW 6.9 mph - N/A   Overcast
8:56 PM 30.0 °F 23.2 °F 25.0 °F 82% 30.22 in 10.0 mi West 6.9 mph - N/A   Overcast
9:56 PM 28.9 °F 21.1 °F 24.1 °F 82% 30.23 in 10.0 mi West 8.1 mph - N/A   Overcast
10:33 PM 28.4 °F 20.4 °F 24.8 °F 86% 30.19 in 10.0 mi West 8.1 mph - N/A   Overcast
10:56 PM 30.0 °F 18.7 °F 23.0 °F 75% 30.25 in 10.0 mi NW 16.1 mph 23.0 mph N/A   Overcast
11:04 PM 28.4 °F 17.0 °F 23.0 °F 80% 30.20 in 10.0 mi NW 15.0 mph 23.0 mph N/A   Overcast
11:56 PM 28.0 °F 17.0 °F 21.9 °F 78% 30.27 in 10.0 mi NW 13.8 mph - N/A   Overcast